ProjectID,Date,Electric Generation,Electric Utility Import,Facility Electric Load
,YYYY-MM-DD,kW,kW,kW
378,2016-09-01,0.0,,0.0
378,2016-09-02,0.0,,0.0
378,2016-09-03,0.0,,0.0
378,2016-09-04,0.0,,0.0
378,2016-09-05,0.0,,0.0
378,2016-09-06,0.0,,0.0
378,2016-09-07,0.0,,0.0
378,2016-09-08,0.0,,0.0
378,2016-09-09,0.0,,0.0
378,2016-09-10,118.932375,,118.932375
378,2016-09-11,243.53987499999997,,243.53987499999997
378,2016-09-12,310.0962916666667,,310.0962916666667
378,2016-09-13,303.0547083333333,,303.0547083333333
378,2016-09-14,87.13095833333331,,87.13095833333331
378,2016-09-15,267.897375,,267.897375
378,2016-09-16,277.44216666666665,,277.44216666666665
378,2016-09-17,228.74045833333335,,228.74045833333335
378,2016-09-18,105.93658333333333,,105.93658333333333
378,2016-09-19,111.11916666666669,,111.11916666666669
378,2016-09-20,241.21525,,241.21525
378,2016-09-21,260.2354583333333,,260.2354583333333
378,2016-09-22,250.70983333333336,,250.70983333333336
378,2016-09-23,40.168499999999995,,40.168499999999995
378,2016-09-24,215.79449999999997,,215.79449999999997
378,2016-09-25,270.62595833333336,,270.62595833333336
378,2016-09-26,224.63583333333335,,224.63583333333335
378,2016-09-27,234.19412499999999,,234.19412499999999
378,2016-09-28,226.61120833333334,,226.61120833333334
378,2016-09-29,238.25437499999998,,238.25437499999998
378,2016-09-30,131.08787499999997,,131.08787499999997
378,2016-10-01,66.077625,,66.077625
378,2016-10-02,56.061583333333324,,56.061583333333324
378,2016-10-03,99.77445833333333,,99.77445833333333
378,2016-10-04,115.16112499999998,,115.16112499999998
378,2016-10-05,269.99670833333334,,269.99670833333334
378,2016-10-06,276.7997916666667,,276.7997916666667
378,2016-10-07,275.9073333333333,,275.9073333333333
378,2016-10-08,72.624625,,72.624625
378,2016-10-09,100.15416666666665,,100.15416666666665
378,2016-10-10,265.0530416666667,,265.0530416666667
378,2016-10-11,265.8607083333333,,265.8607083333333
378,2016-10-12,263.49695833333334,,263.49695833333334
378,2016-10-13,86.42566666666666,,86.42566666666666
378,2016-10-14,276.0842083333333,,276.0842083333333
378,2016-10-15,246.6743333333333,,246.6743333333333
378,2016-10-16,139.487125,,139.487125
378,2016-10-17,129.93220833333336,,129.93220833333336
378,2016-10-18,191.77183333333326,,191.77183333333326
378,2016-10-19,240.1147083333333,,240.1147083333333
378,2016-10-20,33.69029166666667,,33.69029166666667
378,2016-10-21,86.0905,,86.0905
378,2016-10-22,26.89108333333333,,26.89108333333333
378,2016-10-23,241.4861666666667,,241.4861666666667
378,2016-10-24,176.84016666666665,,176.84016666666665
378,2016-10-25,149.12616666666668,,149.12616666666668
378,2016-10-26,91.84404166666667,,91.84404166666667
378,2016-10-27,26.68116666666667,,26.68116666666667
378,2016-10-28,26.428833333333333,,26.428833333333333
378,2016-10-29,14.927875,,14.927875
378,2016-10-30,51.815958333333334,,51.815958333333334
378,2016-10-31,83.02670833333333,,83.02670833333333
378,2016-11-01,227.78787500000007,,227.78787500000007
378,2016-11-02,148.02679166666667,,148.02679166666667
378,2016-11-03,11.957791666666665,,11.957791666666665
378,2016-11-04,154.37175,,154.37175
378,2016-11-05,80.857375,,80.857375
378,2016-11-06,94.49512500000002,,94.49512500000002
378,2016-11-07,223.38,,223.38
378,2016-11-08,221.01604166666664,,221.01604166666664
378,2016-11-09,16.409166666666668,,16.409166666666668
378,2016-11-10,155.59408333333334,,155.59408333333334
378,2016-11-11,120.290375,,120.290375
378,2016-11-12,204.90212499999998,,204.90212499999998
378,2016-11-13,206.07958333333332,,206.07958333333332
378,2016-11-14,203.98620833333325,,203.98620833333325
378,2016-11-15,77.29395833333332,,77.29395833333332
378,2016-11-16,20.46891666666667,,20.46891666666667
378,2016-11-17,122.78741666666666,,122.78741666666666
378,2016-11-18,188.23066666666668,,188.23066666666668
378,2016-11-19,196.22833333333332,,196.22833333333332
378,2016-11-20,0.0,,0.0
378,2016-11-21,0.27220833333333333,,0.27220833333333333
378,2016-11-22,1.5544999999999998,,1.5544999999999998
378,2016-11-23,7.106125000000001,,7.106125000000001
378,2016-11-24,2.022416666666667,,2.022416666666667
378,2016-11-25,15.610541666666668,,15.610541666666668
378,2016-11-26,31.12454166666667,,31.12454166666667
378,2016-11-27,53.157625,,53.157625
378,2016-11-28,186.74870833333333,,186.74870833333333
378,2016-11-29,4.084,,4.084
378,2016-11-30,22.828291666666672,,22.828291666666672
378,2016-12-01,56.56379166666667,,56.56379166666667
378,2016-12-02,58.858583333333335,,58.858583333333335
378,2016-12-03,112.37199999999997,,112.37199999999997
378,2016-12-04,94.33887499999999,,94.33887499999999
378,2016-12-05,0.01825,,0.01825
378,2016-12-06,2.3304166666666664,,2.3304166666666664
378,2016-12-07,0.31187499999999996,,0.31187499999999996
378,2016-12-08,13.061541666666669,,13.061541666666669
378,2016-12-09,60.69949999999999,,60.69949999999999
378,2016-12-10,148.37470833333336,,148.37470833333336
378,2016-12-11,110.00745833333333,,110.00745833333333
378,2016-12-12,0.0,,0.0
378,2016-12-13,18.04945833333333,,18.04945833333333
378,2016-12-14,69.408125,,69.408125
378,2016-12-15,56.351000000000006,,56.351000000000006
378,2016-12-16,97.43245833333334,,97.43245833333334
378,2016-12-17,0.12237500000000001,,0.12237500000000001
378,2016-12-18,2.607416666666667,,2.607416666666667
378,2016-12-19,158.16791666666666,,158.16791666666666
378,2016-12-20,95.93291666666666,,95.93291666666666
378,2016-12-21,108.349,,108.349
378,2016-12-22,0.2897083333333333,,0.2897083333333333
378,2016-12-23,153.95329166666667,,153.95329166666667
378,2016-12-24,12.184624999999999,,12.184624999999999
378,2016-12-25,300.2679166666667,,300.2679166666667
378,2016-12-26,148.95183333333333,,148.95183333333333
378,2016-12-27,68.054625,,68.054625
378,2016-12-28,115.51454166666667,,115.51454166666667
378,2016-12-29,6.253166666666666,,6.253166666666666
378,2016-12-30,0.12404166666666666,,0.12404166666666666
378,2016-12-31,0.5957083333333333,,0.5957083333333333
378,2017-01-01,0.0,,0.0
378,2017-01-02,0.36641666666666667,,0.36641666666666667
378,2017-01-03,70.205875,,70.205875
378,2017-01-04,99.88920833333333,,99.88920833333333
378,2017-01-05,351.45795833333335,,351.45795833333335
378,2017-01-06,125.71345833333334,,125.71345833333334
378,2017-01-07,156.96512499999997,,156.96512499999997
378,2017-01-08,247.21745833333338,,247.21745833333338
378,2017-01-09,36.13795833333334,,36.13795833333334
378,2017-01-10,33.76304166666667,,33.76304166666667
378,2017-01-11,339.985,,339.985
378,2017-01-12,19.514458333333337,,19.514458333333337
378,2017-01-13,426.4309583333333,,426.4309583333333
378,2017-01-14,195.19637500000002,,195.19637500000002
378,2017-01-15,408.08404166666656,,408.08404166666656
378,2017-01-16,360.81654166666664,,360.81654166666664
378,2017-01-17,224.01658333333333,,224.01658333333333
378,2017-01-18,32.782833333333336,,32.782833333333336
378,2017-01-19,126.503375,,126.503375
378,2017-01-20,55.324999999999996,,55.324999999999996
378,2017-01-21,60.8305,,60.8305
378,2017-01-22,33.859541666666665,,33.859541666666665
378,2017-01-23,127.33120833333332,,127.33120833333332
378,2017-01-24,0.04733333333333333,,0.04733333333333333
378,2017-01-25,1.1551250000000002,,1.1551250000000002
378,2017-01-26,20.422041666666665,,20.422041666666665
378,2017-01-27,39.31916666666667,,39.31916666666667
378,2017-01-28,101.70941666666666,,101.70941666666666
378,2017-01-29,249.70383333333334,,249.70383333333334
378,2017-01-30,369.5084583333333,,369.5084583333333
378,2017-01-31,300.38995833333325,,300.38995833333325
378,2017-02-01,64.31808333333333,,64.31808333333333
378,2017-02-02,196.14966666666672,,196.14966666666672
378,2017-02-03,241.2446666666667,,241.2446666666667
378,2017-02-04,305.00049999999993,,305.00049999999993
378,2017-02-05,172.25862499999997,,172.25862499999997
378,2017-02-06,332.5540416666666,,332.5540416666666
378,2017-02-07,63.69295833333334,,63.69295833333334
378,2017-02-08,191.02408333333335,,191.02408333333335
378,2017-02-09,0.19612500000000002,,0.19612500000000002
378,2017-02-10,24.538833333333333,,24.538833333333333
378,2017-02-11,0.0012916666666666667,,0.0012916666666666667
378,2017-02-12,0.0,,0.0
378,2017-02-13,0.0012916666666666667,,0.0012916666666666667
378,2017-02-14,24.254541666666668,,24.254541666666668
378,2017-02-15,61.28533333333332,,61.28533333333332
378,2017-02-16,18.129041666666666,,18.129041666666666
378,2017-02-17,221.96875,,221.96875
378,2017-02-18,436.50662500000004,,436.50662500000004
378,2017-02-19,377.73241666666667,,377.73241666666667
378,2017-02-20,587.6711666666666,,587.6711666666666
378,2017-02-21,367.0245,,367.0245
378,2017-02-22,467.62925,,467.62925
378,2017-02-23,406.4098333333332,,406.4098333333332
378,2017-02-24,216.50845833333332,,216.50845833333332
378,2017-02-25,265.46608333333336,,265.46608333333336
378,2017-02-26,377.57125,,377.57125
378,2017-02-27,425.3300833333333,,425.3300833333333
378,2017-02-28,297.1490833333333,,297.1490833333333
378,2017-03-01,148.85841666666667,,148.85841666666667
378,2017-03-02,302.56741666666665,,302.56741666666665
378,2017-03-03,471.50066666666663,,471.50066666666663
378,2017-03-04,504.49025,,504.49025
378,2017-03-05,650.2945416666668,,650.2945416666668
378,2017-03-06,451.2705416666667,,451.2705416666667
378,2017-03-07,43.638666666666666,,43.638666666666666
378,2017-03-08,390.43491666666665,,390.43491666666665
378,2017-03-09,470.0020416666666,,470.0020416666666
378,2017-03-10,229.0260833333334,,229.0260833333334
378,2017-03-11,99.69858333333333,,99.69858333333333
378,2017-03-12,380.33858333333336,,380.33858333333336
378,2017-03-13,385.30275000000006,,385.30275000000006
378,2017-03-14,0.48375000000000007,,0.48375000000000007
378,2017-03-15,25.64395833333333,,25.64395833333333
378,2017-03-16,368.987625,,368.987625
378,2017-03-17,555.8424583333333,,555.8424583333333
378,2017-03-18,625.1322083333333,,625.1322083333333
378,2017-03-19,674.2207500000001,,674.2207500000001
378,2017-03-20,651.9903333333333,,651.9903333333333
378,2017-03-21,295.20183333333335,,295.20183333333335
378,2017-03-22,545.5331666666667,,545.5331666666667
378,2017-03-23,685.0045416666668,,685.0045416666668
378,2017-03-24,43.52870833333333,,43.52870833333333
378,2017-03-25,162.05991666666668,,162.05991666666668
378,2017-03-26,261.56391666666667,,261.56391666666667
378,2017-03-27,95.93954166666667,,95.93954166666667
378,2017-03-28,215.11266666666666,,215.11266666666666
378,2017-03-29,167.78,,167.78
378,2017-03-30,570.3340416666667,,570.3340416666667
378,2017-03-31,19.56970833333333,,19.56970833333333
378,2017-04-01,26.583375,,26.583375
378,2017-04-02,504.36908333333344,,504.36908333333344
378,2017-04-03,549.7168333333334,,549.7168333333334
378,2017-04-04,84.57687500000002,,84.57687500000002
378,2017-04-05,292.87758333333335,,292.87758333333335
378,2017-04-06,64.49675,,64.49675
378,2017-04-07,186.47525000000005,,186.47525000000005
378,2017-04-08,443.859375,,443.859375
378,2017-04-09,669.2265416666668,,669.2265416666668
378,2017-04-10,552.3209583333335,,552.3209583333335
378,2017-04-11,472.4517916666667,,472.4517916666667
378,2017-04-12,368.0586250000001,,368.0586250000001
378,2017-04-13,513.3509583333333,,513.3509583333333
378,2017-04-14,710.3404166666666,,710.3404166666666
378,2017-04-15,499.81120833333335,,499.81120833333335
378,2017-04-16,460.95183333333347,,460.95183333333347
378,2017-04-17,569.101625,,569.101625
378,2017-04-18,681.9407916666665,,681.9407916666665
378,2017-04-19,215.87829166666663,,215.87829166666663
378,2017-04-20,330.71745833333335,,330.71745833333335
378,2017-04-21,85.67391666666667,,85.67391666666667
378,2017-04-22,203.96425000000002,,203.96425000000002
378,2017-04-23,717.2024583333333,,717.2024583333333
378,2017-04-24,692.4362083333332,,692.4362083333332
378,2017-04-25,253.19275000000002,,253.19275000000002
378,2017-04-26,401.2253333333333,,401.2253333333333
378,2017-04-27,562.9987500000001,,562.9987500000001
378,2017-04-28,469.29691666666673,,469.29691666666673
378,2017-04-29,152.90241666666665,,152.90241666666665
378,2017-04-30,246.65504166666668,,246.65504166666668
378,2017-05-01,473.109375,,473.109375
378,2017-05-02,208.51304166666668,,208.51304166666668
378,2017-05-03,487.11066666666665,,487.11066666666665
378,2017-05-04,589.34775,,589.34775
378,2017-05-05,122.59120833333334,,122.59120833333334
378,2017-05-06,337.91541666666666,,337.91541666666666
378,2017-05-07,370.73712500000005,,370.73712500000005
378,2017-05-08,375.71358333333325,,375.71358333333325
378,2017-05-09,340.95845833333334,,340.95845833333334
378,2017-05-10,450.5326249999999,,450.5326249999999
378,2017-05-11,673.8985416666666,,673.8985416666666
378,2017-05-12,664.6067916666666,,664.6067916666666
378,2017-05-13,297.3880833333333,,297.3880833333333
378,2017-05-14,379.1757916666666,,379.1757916666666
378,2017-05-15,377.6563333333334,,377.6563333333334
378,2017-05-16,712.1212083333331,,712.1212083333331
378,2017-05-17,680.7461666666667,,680.7461666666667
378,2017-05-18,686.0625,,686.0625
378,2017-05-19,0.0,,0.0
378,2017-05-20,0.0,,0.0
378,2017-05-21,500.4024583333334,,500.4024583333334
378,2017-05-22,148.15629166666668,,148.15629166666668
378,2017-05-23,659.4348750000001,,659.4348750000001
378,2017-05-24,517.2136666666667,,517.2136666666667
378,2017-05-25,195.85816666666668,,195.85816666666668
378,2017-05-26,183.4375,,183.4375
378,2017-05-27,599.0065833333334,,599.0065833333334
378,2017-05-28,509.35295833333356,,509.35295833333356
378,2017-05-29,169.58854166666666,,169.58854166666666
378,2017-05-30,145.85033333333334,,145.85033333333334
378,2017-05-31,495.77870833333327,,495.77870833333327
378,2017-06-01,550.0887083333333,,550.0887083333333
378,2017-06-02,441.82166666666666,,441.82166666666666
378,2017-06-03,519.6862083333334,,519.6862083333334
378,2017-06-04,339.84245833333335,,339.84245833333335
378,2017-06-05,219.89462500000002,,219.89462500000002
378,2017-06-06,89.59508333333332,,89.59508333333332
378,2017-06-07,732.0039583333333,,732.0039583333333
378,2017-06-08,619.6629166666668,,619.6629166666668
378,2017-06-09,509.28008333333327,,509.28008333333327
378,2017-06-10,683.2865833333334,,683.2865833333334
378,2017-06-11,673.3777083333333,,673.3777083333333
378,2017-06-12,655.9192916666667,,655.9192916666667
378,2017-06-13,621.7839166666666,,621.7839166666666
378,2017-06-14,718.2735416666666,,718.2735416666666
378,2017-06-15,559.865875,,559.865875
378,2017-06-16,143.48579166666667,,143.48579166666667
378,2017-06-17,514.4740416666667,,514.4740416666667
378,2017-06-18,479.8399166666668,,479.8399166666668
378,2017-06-19,271.55220833333334,,271.55220833333334
378,2017-06-20,524.8789583333335,,524.8789583333335
378,2017-06-21,581.0157916666667,,581.0157916666667
378,2017-06-22,611.4402083333333,,611.4402083333333
378,2017-06-23,385.6380833333333,,385.6380833333333
378,2017-06-24,603.0339166666666,,603.0339166666666
378,2017-06-25,603.9063333333335,,603.9063333333335
378,2017-06-26,385.1459166666668,,385.1459166666668
378,2017-06-27,457.16154166666666,,457.16154166666666
378,2017-06-28,597.214875,,597.214875
378,2017-06-29,203.55741666666665,,203.55741666666665
378,2017-06-30,379.75529166666666,,379.75529166666666
378,2017-07-01,181.32433333333333,,181.32433333333333
378,2017-07-02,688.1654583333334,,688.1654583333334
378,2017-07-03,712.3542500000002,,712.3542500000002
378,2017-07-04,662.435125,,662.435125
378,2017-07-05,724.116,,724.116
378,2017-07-06,418.100375,,418.100375
378,2017-07-07,530.2735416666668,,530.2735416666668
378,2017-07-08,420.48454166666653,,420.48454166666653
378,2017-07-09,563.6147083333334,,563.6147083333334
378,2017-07-10,621.0742916666669,,621.0742916666669
378,2017-07-11,443.5638333333333,,443.5638333333333
378,2017-07-12,549.9596666666666,,549.9596666666666
378,2017-07-13,117.38683333333334,,117.38683333333334
378,2017-07-14,186.91420833333336,,186.91420833333336
378,2017-07-15,407.5326666666667,,407.5326666666667
378,2017-07-16,686.2344166666667,,686.2344166666667
378,2017-07-17,464.87637500000005,,464.87637500000005
378,2017-07-18,646.6863333333334,,646.6863333333334
378,2017-07-19,594.2305416666667,,594.2305416666667
378,2017-07-20,427.44283333333334,,427.44283333333334
378,2017-07-21,670.1980416666667,,670.1980416666667
378,2017-07-22,460.4232916666667,,460.4232916666667
378,2017-07-23,577.1784583333334,,577.1784583333334
378,2017-07-24,113.75795833333335,,113.75795833333335
378,2017-07-25,298.2943333333333,,298.2943333333333
378,2017-07-26,675.4570833333333,,675.4570833333333
378,2017-07-27,230.4506666666667,,230.4506666666667
378,2017-07-28,652.8347083333333,,652.8347083333333
378,2017-07-29,630.07425,,630.07425
378,2017-07-30,715.56525,,715.56525
378,2017-07-31,608.4767083333334,,608.4767083333334
378,2017-08-01,688.3934166666667,,688.3934166666667
378,2017-08-02,509.3439166666667,,509.3439166666667
378,2017-08-03,659.45325,,659.45325
378,2017-08-04,464.4689166666667,,464.4689166666667
378,2017-08-05,355.4090416666667,,355.4090416666667
378,2017-08-06,519.6148333333334,,519.6148333333334
378,2017-08-07,613.4454583333334,,613.4454583333334
378,2017-08-08,593.9480416666667,,593.9480416666667
378,2017-08-09,543.4089166666666,,543.4089166666666
378,2017-08-10,642.12525,,642.12525
378,2017-08-11,356.2162916666667,,356.2162916666667
378,2017-08-12,438.7162916666667,,438.7162916666667
378,2017-08-13,626.086125,,626.086125
378,2017-08-14,632.3829583333334,,632.3829583333334
378,2017-08-15,464.23966666666666,,464.23966666666666
378,2017-08-16,547.8803750000001,,547.8803750000001
378,2017-08-17,639.25275,,639.25275
378,2017-08-18,128.8595,,128.8595
378,2017-08-19,603.2319583333334,,603.2319583333334
378,2017-08-20,618.4792916666667,,618.4792916666667
378,2017-08-21,575.5730416666667,,575.5730416666667
378,2017-08-22,460.7345416666667,,460.7345416666667
378,2017-08-23,509.3777083333334,,509.3777083333334
378,2017-08-24,459.2605833333334,,459.2605833333334
378,2017-08-25,489.33612500000004,,489.33612500000004
378,2017-08-26,640.1406666666667,,640.1406666666667
378,2017-08-27,628.4298333333334,,628.4298333333334
378,2017-08-28,522.3829166666667,,522.3829166666667
378,2017-08-29,271.2761666666667,,271.2761666666667
378,2017-08-30,652.112125,,652.112125
378,2017-08-31,396.093875,,396.093875
378,2017-09-01,550.398625,,550.398625
378,2017-09-02,48.640666666666675,,48.640666666666675
378,2017-09-03,96.71883333333335,,96.71883333333335
378,2017-09-04,608.5574166666667,,608.5574166666667
378,2017-09-05,131.12775000000002,,131.12775000000002
378,2017-09-06,102.30483333333335,,102.30483333333335
378,2017-09-07,305.55991666666665,,305.55991666666665
378,2017-09-08,356.35437500000006,,356.35437500000006
378,2017-09-09,465.5183333333334,,465.5183333333334
378,2017-09-10,634.0965,,634.0965
378,2017-09-11,616.5287500000001,,616.5287500000001
378,2017-09-12,609.5808333333333,,609.5808333333333
378,2017-09-13,597.1694583333334,,597.1694583333334
378,2017-09-14,192.817875,,192.817875
378,2017-09-15,406.3595,,406.3595
378,2017-09-16,545.987125,,545.987125
378,2017-09-17,551.6095,,551.6095
378,2017-09-18,536.1016666666667,,536.1016666666667
378,2017-09-19,535.7110833333334,,535.7110833333334
378,2017-09-20,404.76575,,404.76575
378,2017-09-21,453.16675000000004,,453.16675000000004
378,2017-09-22,557.5547916666667,,557.5547916666667
378,2017-09-23,569.6877083333334,,569.6877083333334
378,2017-09-24,547.6694166666667,,547.6694166666667
378,2017-09-25,552.080875,,552.080875
378,2017-09-26,481.73966666666666,,481.73966666666666
378,2017-09-27,542.1928333333334,,542.1928333333334
378,2017-09-28,395.1042916666667,,395.1042916666667
378,2017-09-29,550.791875,,550.791875
378,2017-09-30,172.1069166666667,,172.1069166666667
378,2017-10-01,518.0600416666667,,518.0600416666667
378,2017-10-02,592.843875,,592.843875
378,2017-10-03,580.9818333333334,,580.9818333333334
378,2017-10-04,556.2475416666667,,556.2475416666667
378,2017-10-05,566.619875,,566.619875
378,2017-10-06,114.575625,,114.575625
378,2017-10-07,142.94279166666666,,142.94279166666666
378,2017-10-08,318.4766666666667,,318.4766666666667
378,2017-10-09,125.56262500000001,,125.56262500000001
378,2017-10-10,468.3985416666667,,468.3985416666667
378,2017-10-11,141.91420833333333,,141.91420833333333
378,2017-10-12,567.4194166666667,,567.4194166666667
378,2017-10-13,472.48975,,472.48975
378,2017-10-14,216.47150000000002,,216.47150000000002
378,2017-10-15,423.317875,,423.317875
378,2017-10-16,167.51575000000003,,167.51575000000003
378,2017-10-17,552.5781666666667,,552.5781666666667
378,2017-10-18,510.4324166666667,,510.4324166666667
378,2017-10-19,501.2370833333334,,501.2370833333334
378,2017-10-20,520.7006250000001,,520.7006250000001
378,2017-10-21,468.419375,,468.419375
378,2017-10-22,421.7995416666667,,421.7995416666667
378,2017-10-23,250.78658333333337,,250.78658333333337
378,2017-10-24,96.75791666666667,,96.75791666666667
378,2017-10-25,212.1016666666667,,212.1016666666667
378,2017-10-26,43.59395833333334,,43.59395833333334
378,2017-10-27,460.047,,460.047
378,2017-10-28,431.2058333333334,,431.2058333333334
378,2017-10-29,46.763125,,46.763125
378,2017-10-30,132.95587500000002,,132.95587500000002
378,2017-10-31,199.70837500000002,,199.70837500000002
378,2017-11-01,93.91675,,93.91675
378,2017-11-02,0.0,,0.0
378,2017-11-03,0.0,,0.0
378,2017-11-04,176.307375,,176.307375
378,2017-11-05,74.09645833333333,,74.09645833333333
378,2017-11-06,0.0,,0.0
378,2017-11-07,0.0,,0.0
378,2017-11-08,36.14845833333333,,36.14845833333333
378,2017-11-09,4.557291666666667,,4.557291666666667
378,2017-11-10,326.87520833333343,,326.87520833333343
378,2017-11-11,289.1580000000001,,289.1580000000001
378,2017-11-12,289.1580000000001,,289.1580000000001
378,2017-11-13,184.8179583333333,,184.8179583333333
378,2017-11-14,62.020916666666665,,62.020916666666665
378,2017-11-15,344.5156666666667,,344.5156666666667
378,2017-11-16,71.700625,,71.700625
378,2017-11-17,322.7995833333334,,322.7995833333334
378,2017-11-18,97.20579166666668,,97.20579166666668
378,2017-11-19,114.14854166666667,,114.14854166666667
378,2017-11-20,233.49750000000003,,233.49750000000003
378,2017-11-21,407.68237500000004,,407.68237500000004
378,2017-11-22,29.963624999999997,,29.963624999999997
378,2017-11-23,229.64329166666667,,229.64329166666667
378,2017-11-24,214.29429166666668,,214.29429166666668
378,2017-11-25,236.24745833333336,,236.24745833333336
378,2017-11-26,260.2579166666667,,260.2579166666667
378,2017-11-27,267.4557916666667,,267.4557916666667
378,2017-11-28,339.6745833333334,,339.6745833333334
378,2017-11-29,171.63033333333337,,171.63033333333337
378,2017-11-30,330.476625,,330.476625
378,2017-12-01,79.09904166666666,,79.09904166666666
378,2017-12-02,95.36987500000002,,95.36987500000002
378,2017-12-03,106.44800000000002,,106.44800000000002
378,2017-12-04,309.0651666666667,,309.0651666666667
378,2017-12-05,14.203166666666666,,14.203166666666666
378,2017-12-06,272.989625,,272.989625
378,2017-12-07,71.47404166666666,,71.47404166666666
378,2017-12-08,262.638125,,262.638125
378,2017-12-09,72.356875,,72.356875
378,2017-12-10,17.979249999999997,,17.979249999999997
378,2017-12-11,53.343875,,53.343875
378,2017-12-12,0.0,,0.0
378,2017-12-13,0.44012499999999993,,0.44012499999999993
378,2017-12-14,2.2265833333333336,,2.2265833333333336
378,2017-12-15,0.3255416666666667,,0.3255416666666667
378,2017-12-16,1.28125,,1.28125
378,2017-12-17,1.4427083333333333,,1.4427083333333333
378,2017-12-18,0.0,,0.0
378,2017-12-19,0.453125,,0.453125
378,2017-12-20,74.51829166666666,,74.51829166666666
378,2017-12-21,275.80991666666665,,275.80991666666665
378,2017-12-22,0.0,,0.0
378,2017-12-23,0.002625,,0.002625